Simultaneous Nadir Overpasses (SNOs) Predictions

Prediction of SNOs between GOES-16 and NOAA-19 Satellite Orbit:

Table of predicted SNOs for the next 14.0 days since TLE Epoch: 5/6/2023
Index Date Time (GOES-16) GOES-16 Lat,Lon NOAA-19 Lat,Lon Distance(km) Time Diff (sec)
1 05/06/2023 13:46:30 0.04, -75.20 0.81, -78.50 376.54 80
2 05/07/2023 13:34:29 0.03, -75.21 0.13, -75.58 42.36 80
3 05/08/2023 13:19:49 0.03, -75.21 -0.55, -72.65 291.86 80
4 05/11/2023 01:42:43 -0.02, -75.21 -0.53, -77.46 256.76 80
5 05/12/2023 01:28:01 -0.02, -75.22 0.12, -74.53 78.06 80
6 05/13/2023 01:16:01 -0.02, -75.23 0.82, -71.61 413.04 80
7 05/14/2023 13:48:25 0.01, -75.26 0.93, -79.32 462.72 64
8 05/15/2023 13:38:48 0.01, -75.27 0.29, -76.38 127.18 80
9 05/16/2023 13:24:07 0.01, -75.29 -0.41, -73.46 208.62 80
10 05/19/2023 01:46:58 -0.01, -75.32 -0.69, -78.26 334.90 80
11 05/20/2023 01:32:17 -0.01, -75.34 -0.02, -75.33 2.30 80
